[[{"header":{"parameterUnit":"m.s-1","parameterCategory":1,"la1":30.2991,"la2":30.254,"lo1":-89.0895,"lo2":-89.0444,"dy":0.0017,"dx":0.0017,"nx":28,"ny":28,"refTime":"2024-08-20T09:00:00:Z","depth":0,"parameterNumber":2,"parameterNumberName":"U-component_of_WINDS"},"data":[0,0,0,0,0,0,0,0,0,0,0,0,0,0,0,0,0,0,0,0,0,0,0,0,0,0,0,0,0,0,0,0,0,0,0,0,0,0,0,0,0,0,0,0,0,0,0,0,0,0,0,0,0,0,0,0,0,0,-1.8187,-1.8186,0,-1.8142,-1.8142,-1.8141,-1.8038,-1.8036,-1.8033,-1.8031,-1.7989,-1.7989,-1.799,0,0,0,0,0,0,0,0,0,0,0,0,0,-1.8184,-1.8184,-1.8187,-1.8186,-1.8186,-1.8142,-1.8142,-1.8141,-1.8038,-1.8036,-1.8033,-1.803,-1.7988,-1.7989,-1.799,0,0,0,0,0,0,0,0,0,0,0,0,0,-1.8167,-1.8185,-1.8187,-1.8129,-1.8123,-1.8142,-1.8142,-1.8141,-1.8039,-1.8035,-1.8032,-1.8029,-1.7988,-1.7989,-1.7991,-1.8063,0,0,-1.7995,-1.7995,0,0,0,0,0,0,0,0,-1.8168,-1.8167,-1.8138,-1.8133,-1.8127,-1.8092,-1.8125,-1.8115,-1.804,-1.8071,-1.8031,-1.8028,-1.8026,-1.8024,-1.8023,-1.8061,-1.8059,-1.7995,-1.7995,-1.7996,-1.7996,0,0,0,0,0,0,0,-1.8169,-1.8168,-1.8169,-1.8138,-1.8131,-1.8106,-1.81,-1.8123,-1.8067,-1.8068,-1.806,-1.8056,-1.8022,-1.8022,-1.8021,-1.8059,-1.7995,-1.7996,-1.7997,-1.7997,-1.8153,-1.8156,0,0,0,0,0,0,-1.8179,-1.817,-1.817,-1.8168,-1.814,-1.8108,-1.8102,-1.8107,-1.8067,-1.8057,-1.8059,-1.8052,-1.8021,-1.802,-1.8019,-1.81,-1.7996,-1.7997,-1.7998,-1.815,-1.8154,-1.8158,0,0,0,0,0,0,-1.8179,-1.818,-1.8172,-1.8167,-1.8164,-1.8112,-1.8118,-1.8107,-1.8107,-1.806,-1.805,-1.8069,-1.8018,-1.8017,-1.8052,-1.8097,-1.7998,-1.7999,-1.8146,-1.8151,-1.8156,-1.8265,0,0,0,0,0,0,-1.8179,-1.818,-1.8207,-1.8168,-1.8165,-1.8206,-1.8121,-1.8109,-1.8109,-1.8099,-1.8066,-1.8058,-1.8016,-1.8051,-1.8054,-1.8097,-1.8,-1.8142,-1.8148,-1.8154,-1.8257,-1.8273,-1.8286,0,0,0,0,0,-1.8179,-1.824,-1.8209,-1.821,-1.8197,-1.8209,-1.8207,-1.8157,-1.8113,-1.814,-1.8109,-1.8059,-1.8092,-1.8056,-1.8058,-1.8103,-1.8139,-1.8146,-1.8154,-1.825,-1.827,-1.8286,0,0,0,0,0,0,-1.8287,-1.8234,-1.8199,-1.8249,-1.8234,-1.8192,-1.8224,-1.818,-1.8178,-1.8168,-1.8107,-1.8101,-1.8144,-1.8127,-1.8087,-1.817,-1.8107,-1.8116,-1.818,-1.8198,-1.8212,-1.8215,-1.8001,0,0,0,0,0,-1.8317,-1.833,-1.8283,-1.8332,-1.8326,-1.8277,-1.828,-1.8243,-1.8225,-1.8219,-1.8191,-1.8177,-1.8184,-1.819,-1.8194,-1.8254,-1.8245,-1.8286,-1.83,-1.8313,-1.8321,-1.835,-1.8367,-1.8182,-1.8182,-1.8182,0,0,-1.8378,-1.835,-1.8363,-1.8353,-1.8337,-1.8353,-1.8272,-1.8293,-1.8304,-1.8222,-1.8253,-1.8233,-1.8213,-1.826,-1.828,-1.8247,-1.837,-1.8322,-1.8333,-1.8334,-1.836,-1.8377,-1.8393,-1.8188,-1.8187,-1.8186,0,0,-1.8497,-1.8478,-1.8516,-1.8501,-1.8478,-1.8444,-1.8453,-1.8417,-1.84,-1.843,-1.8369,-1.8382,-1.8395,-1.8383,-1.8379,-1.8493,-1.8446,-1.8496,-1.8573,-1.8603,-1.8617,-1.863,-1.8669,-1.8684,-1.8504,-1.8504,-1.8504,0,-1.8576,-1.8597,-1.8541,-1.8565,-1.8562,-1.8488,-1.8525,-1.8514,-1.8494,-1.8494,-1.8458,-1.8472,-1.8454,-1.8497,-1.8525,-1.8524,-1.8532,-1.8499,-1.8619,-1.8631,-1.8642,-1.868,-1.8695,-1.851,-1.851,-1.8509,-1.8508,0,-1.8695,-1.871,-1.8744,-1.8724,-1.8725,-1.8756,-1.8706,-1.8713,-1.8676,-1.8646,-1.8677,-1.8652,-1.8649,-1.8657,-1.8621,-1.8695,-1.8675,-1.863,-1.8566,-1.8667,-1.8701,-1.8715,-1.8519,-1.8517,-1.8515,-1.8514,0,0,-1.8881,-1.8829,-1.8843,-1.8832,-1.8801,-1.8812,-1.884,-1.8835,-1.8843,-1.8832,-1.8853,-1.8866,-1.8823,-1.8819,-1.8781,-1.8807,-1.8897,-1.8758,-1.8756,-1.8784,-1.8976,-1.901,-1.9027,-1.8866,-1.8868,-1.887,-1.8977,0,-1.8992,-1.9035,-1.8985,-1.9039,-1.9052,-1.8981,-1.9005,-1.8989,-1.8962,-1.8969,-1.8939,-1.8949,-1.8893,-1.8889,-1.8912,-1.8881,-1.8935,-1.8873,-1.8885,-1.8886,-1.8891,-1.9045,-1.908,-1.9182,-1.899,-1.8992,-1.8994,0,-1.9127,-1.912,-1.9175,-1.9139,-1.9143,-1.9165,-1.9157,-1.9165,-1.9145,-1.9123,-1.9118,-1.9071,-1.9096,-1.9033,-1.9066,-1.9025,-1.9027,-1.9013,-1.9016,-1.9015,-1.8946,-1.9047,-1.9214,-1.9229,-1.9015,-1.9013,-1.9011,0,-1.9256,-1.9261,-1.9294,-1.9288,-1.9247,-1.9264,-1.9248,-1.9224,-1.9224,-1.9218,-1.9217,-1.9214,-1.9213,-1.9211,-1.9165,-1.9124,-1.9204,-1.9138,-1.9186,-1.9188,-1.9206,-1.9205,-1.9375,-1.9209,-1.9209,-1.9208,-1.9208,0,-1.9385,-1.9421,-1.9351,-1.9371,-1.941,-1.9352,-1.9392,-1.9369,-1.9348,-1.9363,-1.9302,-1.9318,-1.9256,-1.9265,-1.923,-1.9262,-1.9262,-1.9245,-1.9235,-1.925,-1.9252,-1.925,-1.9241,-1.9212,-1.9212,-1.9211,-1.921,0,-1.9535,-1.949,-1.9521,-1.9479,-1.9469,-1.9499,-1.9463,-1.9481,-1.9449,-1.9469,-1.947,-1.9421,-1.9428,-1.9383,-1.9382,-1.9358,-1.9407,-1.9385,-1.9413,-1.9406,-1.9457,-1.9453,-1.963,-1.965,-1.9473,-1.9475,-1.9477,0,-1.9619,-1.9645,-1.9606,-1.961,-1.9597,-1.9606,-1.9606,-1.9551,-1.9553,-1.9531,-1.9551,-1.9553,-1.9552,-1.9566,-1.9531,-1.953,-1.9507,-1.957,-1.9507,-1.9521,-1.9507,-1.9505,-1.9507,-1.9583,-1.9585,-1.9587,-1.9588,0,-1.9774,-1.975,-1.9751,-1.9745,-1.9746,-1.9739,-1.9728,-1.9735,-1.9676,-1.9681,-1.9687,-1.9686,-1.9684,-1.9687,-1.9679,-1.9662,-1.9616,-1.9608,-1.9619,-1.9634,-1.9649,-1.9641,-1.9448,-1.9604,-1.9603,-1.9602,-1.9601,-1.96,-1.9893,-1.9912,-1.9887,-1.989,-1.9876,-1.9866,-1.988,-1.985,-1.9853,-1.9847,-1.9815,-1.9826,-1.9805,-1.9788,-1.9777,-1.9785,-1.9755,-1.9772,-1.9775,-1.978,-1.9788,-1.9649,-1.9784,-1.9783,-1.9783,-1.9782,-1.9782,0,-2.0043,-2.0023,-2.0027,-2.0012,-2.0015,-1.997,-1.9955,-1.996,-1.9971,-1.9955,-1.9954,-1.996,-1.9962,-1.9927,-1.9925,-1.9938,-1.9917,-1.994,-1.9937,-1.9934,-1.9816,-1.9806,-1.9957,-1.9957,-1.9957,-1.9957,-1.9957,-1.9957,-2.0121,-2.0151,-2.0124,-2.0146,-2.0125,-2.0136,-2.0131,-2.0122,-2.0108,-2.0118,-2.0119,-2.0095,-2.0071,-2.0066,-2.0066,-2.0056,-2.0057,-2.0087,-2.007,-1.996,-1.9943,-1.9927,-1.9917,-2.0088,-2.0089,-2.0187,-2.0188,-2.0188]},{"header":{"parameterUnit":"m.s-1","parameterCategory":1,"la1":30.2991,"la2":30.254,"lo1":-89.0895,"lo2":-89.0444,"dy":0.0017,"dx":0.0017,"nx":28,"ny":28,"refTime":"2024-08-20T09:00:00:Z","depth":0,"parameterNumber":3,"parameterNumberName":"V-component_of_WINDS"},"data":[0,0,0,0,0,0,0,0,0,0,0,0,0,0,0,0,0,0,0,0,0,0,0,0,0,0,0,0,0,0,0,0,0,0,0,0,0,0,0,0,0,0,0,0,0,0,0,0,0,0,0,0,0,0,0,0,0,0,-2.632,-2.6321,0,-2.6386,-2.6387,-2.6387,-2.6371,-2.637,-2.6368,-2.6367,-2.6433,-2.6435,-2.6438,0,0,0,0,0,0,0,0,0,0,0,0,0,-2.6177,-2.6179,-2.632,-2.6321,-2.6322,-2.6386,-2.6387,-2.6387,-2.6371,-2.637,-2.6368,-2.6367,-2.6432,-2.6435,-2.6439,0,0,0,0,0,0,0,0,0,0,0,0,0,-2.624,-2.618,-2.632,-2.6321,-2.6322,-2.6386,-2.6387,-2.6388,-2.6372,-2.637,-2.6368,-2.6366,-2.643,-2.6435,-2.6439,-2.6504,0,0,-2.6452,-2.6454,0,0,0,0,0,0,0,0,-2.6237,-2.6246,-2.632,-2.6321,-2.6322,-2.6368,-2.636,-2.6427,-2.6372,-2.6353,-2.6367,-2.6365,-2.6413,-2.6418,-2.6435,-2.6508,-2.651,-2.6453,-2.6456,-2.6457,-2.6459,0,0,0,0,0,0,0,-2.6232,-2.6243,-2.6346,-2.6321,-2.6323,-2.6317,-2.6324,-2.6372,-2.6393,-2.6354,-2.6353,-2.6361,-2.6413,-2.6431,-2.6436,-2.6511,-2.6453,-2.6457,-2.6459,-2.6461,-2.6636,-2.6638,0,0,0,0,0,0,-2.6227,-2.6239,-2.6344,-2.6348,-2.6274,-2.6322,-2.6329,-2.6355,-2.6392,-2.6396,-2.6363,-2.636,-2.6424,-2.6431,-2.6438,-2.6514,-2.6457,-2.6461,-2.6464,-2.6634,-2.6637,-2.6639,0,0,0,0,0,0,-2.6224,-2.6237,-2.6341,-2.6293,-2.6306,-2.6326,-2.6356,-2.6358,-2.6376,-2.6399,-2.6402,-2.6378,-2.6423,-2.6432,-2.6487,-2.6517,-2.6463,-2.6467,-2.6632,-2.6635,-2.6638,-2.6669,0,0,0,0,0,0,-2.622,-2.6236,-2.6262,-2.6294,-2.6309,-2.6391,-2.6358,-2.636,-2.6383,-2.6381,-2.6413,-2.6417,-2.6422,-2.6481,-2.6492,-2.6522,-2.6471,-2.6629,-2.6633,-2.6637,-2.6665,-2.6673,-2.6679,0,0,0,0,0,-2.6215,-2.6269,-2.6264,-2.6277,-2.6342,-2.6392,-2.6401,-2.6406,-2.6386,-2.6411,-2.6425,-2.6416,-2.6512,-2.6487,-2.6499,-2.6531,-2.6628,-2.6632,-2.6637,-2.6662,-2.6671,-2.6679,0,0,0,0,0,0,-2.6241,-2.6273,-2.6268,-2.6334,-2.636,-2.639,-2.6422,-2.6416,-2.6449,-2.6445,-2.6449,-2.6457,-2.6512,-2.6527,-2.6498,-2.6594,-2.6567,-2.6574,-2.6582,-2.6591,-2.6597,-2.6592,-2.6475,0,0,0,0,0,-2.6254,-2.6293,-2.6319,-2.6374,-2.6388,-2.6403,-2.6425,-2.6426,-2.6454,-2.6465,-2.6483,-2.651,-2.6545,-2.6569,-2.6604,-2.6668,-2.6673,-2.6695,-2.6702,-2.6707,-2.6713,-2.6744,-2.6754,-2.6654,-2.6654,-2.6654,0,0,-2.6282,-2.6304,-2.6329,-2.638,-2.6401,-2.6439,-2.6412,-2.6455,-2.6483,-2.6471,-2.6524,-2.6538,-2.6567,-2.6626,-2.6653,-2.664,-2.6741,-2.6713,-2.6717,-2.672,-2.675,-2.6759,-2.6768,-2.6657,-2.6657,-2.6656,0,0,-2.6351,-2.6374,-2.642,-2.6441,-2.6473,-2.6482,-2.6493,-2.6522,-2.6531,-2.6584,-2.6575,-2.6608,-2.667,-2.669,-2.6709,-2.6783,-2.6773,-2.6794,-2.6829,-2.6859,-2.6867,-2.6874,-2.6897,-2.6906,-2.6799,-2.68,-2.68,0,-2.6381,-2.644,-2.6445,-2.6488,-2.6509,-2.65,-2.6546,-2.6566,-2.6607,-2.6621,-2.6606,-2.6682,-2.6701,-2.6763,-2.678,-2.6797,-2.6807,-2.679,-2.6865,-2.6872,-2.6879,-2.6901,-2.691,-2.6802,-2.6801,-2.6801,-2.6801,0,-2.6474,-2.6514,-2.6548,-2.6587,-2.6613,-2.6657,-2.6666,-2.6691,-2.669,-2.67,-2.6751,-2.6774,-2.6811,-2.6826,-2.6826,-2.6887,-2.6878,-2.6864,-2.6837,-2.689,-2.6911,-2.692,-2.6805,-2.6804,-2.6803,-2.6803,0,0,-2.6563,-2.6602,-2.6614,-2.663,-2.6663,-2.6693,-2.6735,-2.6772,-2.6791,-2.6819,-2.6853,-2.6905,-2.6891,-2.6912,-2.6914,-2.6941,-2.6994,-2.6923,-2.6924,-2.6933,-2.7059,-2.7067,-2.7077,-2.6988,-2.699,-2.6991,-2.7055,0,-2.6633,-2.6708,-2.6712,-2.678,-2.6815,-2.6805,-2.6842,-2.6865,-2.6874,-2.6905,-2.6915,-2.695,-2.6932,-2.6943,-2.697,-2.6982,-2.7018,-2.6977,-2.7017,-2.7019,-2.7009,-2.7089,-2.7099,-2.7158,-2.7064,-2.7065,-2.7066,0,-2.6726,-2.6756,-2.6826,-2.685,-2.6865,-2.6898,-2.693,-2.696,-2.6984,-2.6989,-2.7011,-2.7008,-2.7049,-2.702,-2.7075,-2.7047,-2.7064,-2.7071,-2.7074,-2.7077,-2.7045,-2.7091,-2.7177,-2.7185,-2.708,-2.7079,-2.7078,0,-2.678,-2.6838,-2.6886,-2.6901,-2.6931,-2.6954,-2.6967,-2.699,-2.701,-2.7038,-2.705,-2.7082,-2.7099,-2.7123,-2.7128,-2.7107,-2.7181,-2.7155,-2.7185,-2.7184,-2.72,-2.7198,-2.7288,-2.7214,-2.7214,-2.7213,-2.7213,0,-2.6858,-2.69,-2.6911,-2.6941,-2.6987,-2.699,-2.7036,-2.7048,-2.7068,-2.7098,-2.7092,-2.712,-2.7126,-2.7154,-2.7158,-2.7201,-2.721,-2.7213,-2.7213,-2.7213,-2.7212,-2.7222,-2.7218,-2.7216,-2.7215,-2.7215,-2.7214,0,-2.6926,-2.6935,-2.6987,-2.701,-2.7017,-2.705,-2.7069,-2.7097,-2.7105,-2.7143,-2.7152,-2.7165,-2.7198,-2.7205,-2.7245,-2.7247,-2.7298,-2.7295,-2.7289,-2.7288,-2.7317,-2.7313,-2.7415,-2.7427,-2.7347,-2.7348,-2.7348,0,-2.6974,-2.7006,-2.7033,-2.7052,-2.7066,-2.7099,-2.7119,-2.7123,-2.7144,-2.7172,-2.7195,-2.7228,-2.7254,-2.7308,-2.7319,-2.7349,-2.7345,-2.7379,-2.735,-2.7347,-2.7343,-2.734,-2.7342,-2.7384,-2.7385,-2.7385,-2.7386,0,-2.7057,-2.7059,-2.7088,-2.7119,-2.7142,-2.7167,-2.7189,-2.7206,-2.7212,-2.7235,-2.7269,-2.7289,-2.7329,-2.736,-2.7389,-2.7402,-2.7394,-2.7395,-2.7403,-2.7402,-2.7396,-2.7397,-2.7302,-2.7392,-2.7392,-2.7391,-2.7391,-2.7391,-2.7115,-2.7142,-2.7164,-2.7196,-2.7213,-2.7233,-2.7259,-2.727,-2.7298,-2.733,-2.7331,-2.7367,-2.7387,-2.7425,-2.7439,-2.7466,-2.7455,-2.7468,-2.7471,-2.7473,-2.7474,-2.7393,-2.7472,-2.7471,-2.7471,-2.7471,-2.7471,0,-2.7195,-2.7208,-2.7238,-2.7269,-2.7293,-2.7284,-2.7308,-2.7328,-2.736,-2.738,-2.7405,-2.7442,-2.7472,-2.7485,-2.7514,-2.7533,-2.753,-2.754,-2.7538,-2.754,-2.7484,-2.7473,-2.7542,-2.7542,-2.7542,-2.7542,-2.7542,-2.7542,-2.724,-2.7284,-2.7288,-2.7339,-2.7352,-2.7387,-2.7401,-2.7419,-2.7434,-2.7476,-2.75,-2.7509,-2.7525,-2.7554,-2.758,-2.7583,-2.7593,-2.7604,-2.7605,-2.7552,-2.7545,-2.7538,-2.7527,-2.7607,-2.7607,-2.7659,-2.766,-2.766]}]]